Time,TemperatureF,DewpointF,PressureIn,WindDirection,WindDirectionDegrees,WindSpeedMPH,WindSpeedGustMPH,Humidity,HourlyPrecipIn,Conditions,Clouds,dailyrainin,SoftwareType,DateUTC
2013-02-15 00:00:00,45.7,31.8,30.20,North,11,0.0,0.0,58,0.00,,---,0.00,VWS V14.00,2013-02-15 06:00:00,
2013-02-15 00:02:00,45.6,31.7,30.20,NNW,346,0.0,0.0,58,0.00,,---,0.00,VWS V14.00,2013-02-15 06:02:00,
2013-02-15 00:04:00,45.6,31.7,30.20,NNW,345,0.0,0.0,58,0.00,,---,0.00,VWS V14.00,2013-02-15 06:04:00,
2013-02-15 00:06:00,45.6,31.7,30.20,North,11,0.0,0.0,58,0.00,,---,0.00,VWS V14.00,2013-02-15 06:06:00,
2013-02-15 00:08:00,45.6,31.3,30.20,North,10,0.0,0.0,57,0.00,,---,0.00,VWS V14.00,2013-02-15 06:08:00,
2013-02-15 00:11:00,45.6,31.7,30.20,NNW,346,0.0,0.0,58,0.00,,---,0.00,VWS V14.00,2013-02-15 06:11:00,
2013-02-15 00:16:00,45.6,31.3,30.20,North,11,0.0,0.0,57,0.00,,---,0.00,VWS V14.00,2013-02-15 06:16:00,
2013-02-15 00:21:00,45.5,31.6,30.20,North,351,0.0,0.0,58,0.00,,---,0.00,VWS V14.00,2013-02-15 06:21:00,
2013-02-15 00:22:00,45.6,31.7,30.20,North,351,0.0,0.0,58,0.00,,---,0.00,VWS V14.00,2013-02-15 06:22:00,
2013-02-15 00:23:00,45.5,31.2,30.20,NNE,32,0.0,0.0,57,0.00,,---,0.00,VWS V14.00,2013-02-15 06:23:00,
2013-02-15 00:24:00,45.5,31.2,30.20,NNE,32,0.0,0.0,57,0.00,,---,0.00,VWS V14.00,2013-02-15 06:24:00,
2013-02-15 00:27:00,45.5,31.6,30.20,North,351,0.0,0.0,58,0.00,,---,0.00,VWS V14.00,2013-02-15 06:27:00,
2013-02-15 00:30:00,45.5,31.2,30.20,North,359,0.0,0.0,57,0.00,,---,0.00,VWS V14.00,2013-02-15 06:30:00,
2013-02-15 00:31:00,45.5,31.2,30.20,North,359,0.0,0.0,57,0.00,,---,0.00,VWS V14.00,2013-02-15 06:31:00,
2013-02-15 00:32:00,45.5,31.2,30.20,NNE,33,0.0,0.0,57,0.00,,---,0.00,VWS V14.00,2013-02-15 06:32:00,
2013-02-15 00:33:00,45.4,31.1,30.20,North,359,0.0,0.0,57,0.00,,---,0.00,VWS V14.00,2013-02-15 06:33:00,
2013-02-15 00:34:00,45.4,31.1,30.20,North,359,0.0,0.0,57,0.00,,---,0.00,VWS V14.00,2013-02-15 06:34:00,
2013-02-15 00:35:00,45.3,31.0,30.20,North,359,0.0,0.0,57,0.00,,---,0.00,VWS V14.00,2013-02-15 06:35:00,
2013-02-15 00:36:00,45.3,31.4,30.20,North,359,0.0,0.0,58,0.00,,---,0.00,VWS V14.00,2013-02-15 06:36:00,
2013-02-15 00:37:00,45.5,31.2,30.20,North,359,0.0,0.0,57,0.00,,---,0.00,VWS V14.00,2013-02-15 06:37:00,
2013-02-15 00:38:00,45.2,31.3,30.20,North,359,0.0,0.0,58,0.00,,---,0.00,VWS V14.00,2013-02-15 06:38:00,
2013-02-15 00:39:00,45.1,31.2,30.20,North,359,0.0,0.0,58,0.00,,---,0.00,VWS V14.00,2013-02-15 06:39:00,
2013-02-15 00:42:00,45.4,31.1,30.20,North,359,0.0,0.0,57,0.00,,---,0.00,VWS V14.00,2013-02-15 06:42:00,
2013-02-15 00:44:00,45.0,31.1,30.20,North,359,0.0,0.0,58,0.00,,---,0.00,VWS V14.00,2013-02-15 06:44:00,
2013-02-15 00:47:00,45.2,31.3,30.20,North,359,0.0,0.0,58,0.00,,---,0.00,VWS V14.00,2013-02-15 06:47:00,
2013-02-15 00:48:00,44.9,31.0,30.21,North,359,0.0,0.0,58,0.00,,---,0.00,VWS V14.00,2013-02-15 06:48:00,
2013-02-15 00:52:00,45.0,31.1,30.20,North,359,0.0,0.0,58,0.00,,---,0.00,VWS V14.00,2013-02-15 06:52:00,
2013-02-15 00:56:00,44.7,31.3,30.21,North,349,0.0,0.0,59,0.00,,---,0.00,VWS V14.00,2013-02-15 06:56:00,
2013-02-15 00:58:00,44.7,31.3,30.21,North,349,0.0,0.0,59,0.00,,---,0.00,VWS V14.00,2013-02-15 06:58:00,
2013-02-15 00:59:00,44.9,31.0,30.21,North,359,0.0,0.0,58,0.00,,---,0.00,VWS V14.00,2013-02-15 06:59:00,
2013-02-15 01:01:00,44.6,31.2,30.21,NNW,343,0.0,2.0,59,0.00,,---,0.00,VWS V14.00,2013-02-15 07:01:00,
2013-02-15 01:03:00,44.6,31.2,30.21,NNW,342,0.0,0.0,59,0.00,,---,0.00,VWS V14.00,2013-02-15 07:03:00,
2013-02-15 01:05:00,44.7,31.3,30.21,North,349,0.0,0.0,59,0.00,,---,0.00,VWS V14.00,2013-02-15 07:05:00,
2013-02-15 01:06:00,44.6,31.6,30.21,WNW,300,0.0,0.0,60,0.00,,---,0.00,VWS V14.00,2013-02-15 07:06:00,
2013-02-15 01:07:00,44.5,31.1,30.21,NNW,330,0.0,0.0,59,0.00,,---,0.00,VWS V14.00,2013-02-15 07:07:00,
2013-02-15 01:08:00,44.5,31.1,30.21,North,5,0.0,3.0,59,0.00,,---,0.00,VWS V14.00,2013-02-15 07:08:00,
2013-02-15 01:09:00,44.5,31.1,30.21,North,5,0.0,0.0,59,0.00,,---,0.00,VWS V14.00,2013-02-15 07:09:00,
2013-02-15 01:10:00,44.6,31.2,30.21,NNW,339,0.0,0.0,59,0.00,,---,0.00,VWS V14.00,2013-02-15 07:10:00,
2013-02-15 01:12:00,44.5,31.5,30.21,NNW,335,3.0,3.0,60,0.00,,---,0.00,VWS V14.00,2013-02-15 07:12:00,
2013-02-15 01:15:00,44.6,31.2,30.21,WNW,300,0.0,0.0,59,0.00,,---,0.00,VWS V14.00,2013-02-15 07:15:00,
2013-02-15 01:20:00,44.5,31.5,30.21,NW,316,0.0,0.0,60,0.00,,---,0.00,VWS V14.00,2013-02-15 07:20:00,
2013-02-15 01:21:00,44.3,31.3,30.22,NW,321,0.0,2.0,60,0.00,,---,0.00,VWS V14.00,2013-02-15 07:21:00,
2013-02-15 01:23:00,44.2,31.2,30.22,North,0,0.0,0.0,60,0.00,,---,0.00,VWS V14.00,2013-02-15 07:23:00,
2013-02-15 01:26:00,44.4,31.4,30.22,NNE,16,2.0,2.0,60,0.00,,---,0.00,VWS V14.00,2013-02-15 07:26:00,
2013-02-15 01:32:00,44.2,31.2,30.22,NNW,327,0.0,0.0,60,0.00,,---,0.00,VWS V14.00,2013-02-15 07:32:00,
2013-02-15 01:37:00,44.0,30.6,30.22,NNW,347,0.0,3.0,59,0.00,,---,0.00,VWS V14.00,2013-02-15 07:37:00,
2013-02-15 01:38:00,43.7,30.3,30.22,NNE,14,0.0,2.0,59,0.00,,---,0.00,VWS V14.00,2013-02-15 07:38:00,
2013-02-15 01:43:00,43.8,30.4,30.22,NNE,19,5.0,7.0,59,0.00,,---,0.00,VWS V14.00,2013-02-15 07:43:00,
2013-02-15 01:49:00,43.6,30.2,30.22,North,7,5.0,6.0,59,0.00,,---,0.00,VWS V14.00,2013-02-15 07:49:00,
2013-02-15 01:54:00,43.3,30.0,30.22,North,351,0.0,0.0,59,0.00,,---,0.00,VWS V14.00,2013-02-15 07:54:00,
2013-02-15 01:59:00,43.0,29.7,30.23,NNE,27,0.0,4.0,59,0.00,,---,0.00,VWS V14.00,2013-02-15 07:59:00,
2013-02-15 02:04:00,42.7,29.0,30.23,NNE,26,10.0,13.0,58,0.00,,---,0.00,VWS V14.00,2013-02-15 08:04:00,
2013-02-15 02:09:00,42.4,28.7,30.23,NNE,19,0.0,5.0,58,0.00,,---,0.00,VWS V14.00,2013-02-15 08:09:00,
2013-02-15 02:14:00,42.1,28.0,30.24,North,0,13.0,13.0,57,0.00,,---,0.00,VWS V14.00,2013-02-15 08:14:00,
2013-02-15 02:19:00,41.9,27.4,30.24,NNE,26,6.0,6.0,56,0.00,,---,0.00,VWS V14.00,2013-02-15 08:19:00,
2013-02-15 02:24:00,41.6,26.6,30.24,NNE,32,10.0,10.0,55,0.00,,---,0.00,VWS V14.00,2013-02-15 08:24:00,
2013-02-15 02:29:00,41.4,26.5,30.24,NE,41,2.0,14.0,55,0.00,,---,0.00,VWS V14.00,2013-02-15 08:29:00,
2013-02-15 02:34:00,41.2,25.8,30.24,NNE,18,6.0,6.0,54,0.00,,---,0.00,VWS V14.00,2013-02-15 08:34:00,
2013-02-15 02:39:00,41.0,26.1,30.24,NNE,20,8.0,9.0,55,0.00,,---,0.00,VWS V14.00,2013-02-15 08:39:00,
2013-02-15 02:44:00,40.8,25.9,30.24,NNE,32,6.0,6.0,55,0.00,,---,0.00,VWS V14.00,2013-02-15 08:44:00,
2013-02-15 02:49:00,40.5,25.6,30.24,NNE,25,4.0,5.0,55,0.00,,---,0.00,VWS V14.00,2013-02-15 08:49:00,
2013-02-15 02:54:00,40.3,25.9,30.24,North,8,2.0,11.0,56,0.00,,---,0.00,VWS V14.00,2013-02-15 08:54:00,
2013-02-15 02:59:00,40.1,26.1,30.25,NNE,29,2.0,11.0,57,0.00,,---,0.00,VWS V14.00,2013-02-15 08:59:00,
2013-02-15 03:04:00,39.9,26.3,30.25,NNE,27,0.0,1.0,58,0.00,,---,0.00,VWS V14.00,2013-02-15 09:04:00,
2013-02-15 03:09:00,39.7,25.7,30.25,NNE,23,0.0,9.0,57,0.00,,---,0.00,VWS V14.00,2013-02-15 09:09:00,
2013-02-15 03:14:00,39.5,25.5,30.25,NNE,26,8.0,9.0,57,0.00,,---,0.00,VWS V14.00,2013-02-15 09:14:00,
2013-02-15 03:20:00,39.3,25.4,30.25,NNE,17,6.0,7.0,57,0.00,,---,0.00,VWS V14.00,2013-02-15 09:20:00,
2013-02-15 03:25:00,39.1,24.7,30.25,NNE,23,0.0,9.0,56,0.00,,---,0.00,VWS V14.00,2013-02-15 09:25:00,
2013-02-15 03:30:00,38.9,25.0,30.25,NNE,15,5.0,5.0,57,0.00,,---,0.00,VWS V14.00,2013-02-15 09:30:00,
2013-02-15 03:36:00,38.6,24.3,30.25,North,9,0.0,12.0,56,0.00,,---,0.00,VWS V14.00,2013-02-15 09:36:00,
2013-02-15 03:41:00,38.3,23.6,30.26,NNE,23,0.0,11.0,55,0.00,,---,0.00,VWS V14.00,2013-02-15 09:41:00,
2013-02-15 03:46:00,38.1,23.4,30.26,NNE,31,13.0,13.0,55,0.00,,---,0.00,VWS V14.00,2013-02-15 09:46:00,
2013-02-15 03:52:00,37.8,23.1,30.26,NNE,20,0.0,14.0,55,0.00,,---,0.00,VWS V14.00,2013-02-15 09:52:00,
2013-02-15 03:57:00,37.5,22.8,30.27,NNE,23,13.0,14.0,55,0.00,,---,0.00,VWS V14.00,2013-02-15 09:57:00,
2013-02-15 04:02:00,37.1,22.9,30.27,NNE,21,9.0,17.0,56,0.00,,---,0.00,VWS V14.00,2013-02-15 10:02:00,
2013-02-15 04:07:00,36.9,23.1,30.27,North,0,0.0,9.0,57,0.00,,---,0.00,VWS V14.00,2013-02-15 10:07:00,
2013-02-15 04:13:00,36.6,23.2,30.27,North,350,0.0,1.0,58,0.00,,---,0.00,VWS V14.00,2013-02-15 10:13:00,
2013-02-15 04:19:00,36.3,23.0,30.27,NNE,29,4.0,12.0,58,0.00,,---,0.00,VWS V14.00,2013-02-15 10:19:00,
2013-02-15 04:24:00,36.0,23.1,30.27,North,0,1.0,16.0,59,0.00,,---,0.00,VWS V14.00,2013-02-15 10:24:00,
2013-02-15 04:30:00,35.8,22.9,30.28,NNE,18,0.0,7.0,59,0.00,,---,0.00,VWS V14.00,2013-02-15 10:30:00,
2013-02-15 04:36:00,35.5,23.0,30.28,NE,43,6.0,19.0,60,0.00,,---,0.00,VWS V14.00,2013-02-15 10:36:00,
2013-02-15 04:41:00,35.3,23.2,30.28,North,1,13.0,13.0,61,0.00,,---,0.00,VWS V14.00,2013-02-15 10:41:00,
2013-02-15 04:46:00,35.0,23.3,30.28,NW,311,5.0,12.0,62,0.00,,---,0.00,VWS V14.00,2013-02-15 10:46:00,
2013-02-15 04:52:00,34.6,23.3,30.28,NNE,12,10.0,18.0,63,0.00,,---,0.00,VWS V14.00,2013-02-15 10:52:00,
2013-02-15 04:58:00,34.2,23.3,30.29,NNE,15,11.0,14.0,64,0.00,,---,0.00,VWS V14.00,2013-02-15 10:58:00,
2013-02-15 05:03:00,33.9,23.4,30.29,NNE,23,6.0,15.0,65,0.00,,---,0.00,VWS V14.00,2013-02-15 11:03:00,
2013-02-15 05:08:00,33.5,23.4,30.29,NNE,15,13.0,14.0,66,0.00,,---,0.00,VWS V14.00,2013-02-15 11:08:00,
2013-02-15 05:14:00,33.2,23.5,30.29,North,0,17.0,19.0,67,0.00,,---,0.00,VWS V14.00,2013-02-15 11:14:00,
2013-02-15 05:20:00,33.0,23.6,30.29,NE,47,7.0,12.0,68,0.00,,---,0.00,VWS V14.00,2013-02-15 11:20:00,
2013-02-15 05:25:00,32.9,23.5,30.30,North,5,4.0,15.0,68,0.00,,---,0.00,VWS V14.00,2013-02-15 11:25:00,
2013-02-15 05:30:00,32.7,23.3,30.30,North,0,4.0,9.0,68,0.00,,---,0.00,VWS V14.00,2013-02-15 11:30:00,
2013-02-15 05:35:00,32.5,23.5,30.30,North,5,7.0,13.0,69,0.00,,---,0.00,VWS V14.00,2013-02-15 11:35:00,
2013-02-15 05:41:00,32.4,23.4,30.30,NNE,17,2.0,8.0,69,0.00,,---,0.00,VWS V14.00,2013-02-15 11:41:00,
2013-02-15 05:46:00,32.3,23.6,30.30,North,6,6.0,13.0,70,0.00,,---,0.00,VWS V14.00,2013-02-15 11:46:00,
2013-02-15 05:51:00,32.1,23.4,30.30,NNE,22,11.0,12.0,70,0.00,,---,0.00,VWS V14.00,2013-02-15 11:51:00,
2013-02-15 05:56:00,32.1,23.8,30.31,NNE,16,6.0,11.0,71,0.00,,---,0.00,VWS V14.00,2013-02-15 11:56:00,
2013-02-15 06:02:00,32.0,23.7,30.31,NNE,18,11.0,16.0,71,0.00,,---,0.00,VWS V14.00,2013-02-15 12:02:00,
2013-02-15 06:08:00,31.9,23.6,30.31,North,1,5.0,6.0,71,0.00,,---,0.00,VWS V14.00,2013-02-15 12:08:00,
2013-02-15 06:13:00,31.8,23.8,30.31,NNE,17,0.0,5.0,72,0.00,,---,0.00,VWS V14.00,2013-02-15 12:13:00,
2013-02-15 06:19:00,31.6,23.6,30.31,NNE,32,0.0,6.0,72,0.00,,---,0.00,VWS V14.00,2013-02-15 12:19:00,
2013-02-15 06:25:00,31.5,23.9,30.31,NNE,23,5.0,7.0,73,0.00,,---,0.00,VWS V14.00,2013-02-15 12:25:00,
2013-02-15 06:30:00,31.4,23.8,30.31,NNE,29,4.0,8.0,73,0.00,,---,0.00,VWS V14.00,2013-02-15 12:30:00,
2013-02-15 06:36:00,31.3,23.7,30.31,NNE,20,5.0,9.0,73,0.00,,---,0.00,VWS V14.00,2013-02-15 12:36:00,
2013-02-15 06:41:00,31.2,23.6,30.32,NNE,23,9.0,9.0,73,0.00,,---,0.00,VWS V14.00,2013-02-15 12:41:00,
2013-02-15 06:47:00,31.1,23.8,30.32,WNW,285,7.0,7.0,74,0.00,,---,0.00,VWS V14.00,2013-02-15 12:47:00,
2013-02-15 06:52:00,31.1,23.8,30.32,NNE,25,0.0,3.0,74,0.00,,---,0.00,VWS V14.00,2013-02-15 12:52:00,
2013-02-15 06:58:00,31.0,23.7,30.33,North,9,0.0,0.0,74,0.00,,---,0.00,VWS V14.00,2013-02-15 12:58:00,
2013-02-15 07:03:00,30.9,23.6,30.33,NE,38,0.0,5.0,74,0.00,,---,0.00,VWS V14.00,2013-02-15 13:03:00,
2013-02-15 07:08:00,30.8,23.8,30.33,NNE,21,0.0,11.0,75,0.00,,---,0.00,VWS V14.00,2013-02-15 13:08:00,
2013-02-15 07:14:00,30.7,23.7,30.33,NNE,19,0.0,0.0,75,0.00,,---,0.00,VWS V14.00,2013-02-15 13:14:00,
2013-02-15 07:20:00,30.6,23.6,30.33,North,359,5.0,7.0,75,0.00,,---,0.00,VWS V14.00,2013-02-15 13:20:00,
2013-02-15 07:25:00,30.6,23.6,30.33,NNE,20,12.0,12.0,75,0.00,,---,0.00,VWS V14.00,2013-02-15 13:25:00,
2013-02-15 07:31:00,30.7,23.7,30.33,NNE,15,9.0,10.0,75,0.00,,---,0.00,VWS V14.00,2013-02-15 13:31:00,
2013-02-15 07:36:00,30.7,23.7,30.33,NW,320,0.0,10.0,75,0.00,,---,0.00,VWS V14.00,2013-02-15 13:36:00,
2013-02-15 07:41:00,30.7,24.0,30.34,North,1,11.0,12.0,76,0.00,,---,0.00,VWS V14.00,2013-02-15 13:41:00,
2013-02-15 07:47:00,30.6,24.0,30.34,North,9,9.0,11.0,76,0.00,,---,0.00,VWS V14.00,2013-02-15 13:47:00,
2013-02-15 07:52:00,30.7,24.0,30.34,North,1,0.0,10.0,76,0.00,,---,0.00,VWS V14.00,2013-02-15 13:52:00,
2013-02-15 07:57:00,30.6,23.6,30.34,NNE,23,6.0,15.0,75,0.00,,---,0.00,VWS V14.00,2013-02-15 13:57:00,
2013-02-15 08:02:00,30.6,23.6,30.34,North,10,7.0,12.0,75,0.00,,---,0.00,VWS V14.00,2013-02-15 14:02:00,
2013-02-15 08:07:00,30.6,23.6,30.34,NNE,30,2.0,10.0,75,0.00,,---,0.00,VWS V14.00,2013-02-15 14:07:00,
2013-02-15 08:12:00,30.9,23.9,30.35,NE,44,6.0,11.0,75,0.00,,---,0.00,VWS V14.00,2013-02-15 14:12:00,
2013-02-15 08:17:00,31.1,24.1,30.35,NNE,13,0.0,15.0,75,0.00,,---,0.00,VWS V14.00,2013-02-15 14:17:00,
2013-02-15 08:22:00,31.2,23.9,30.35,NNE,17,9.0,11.0,74,0.00,,---,0.00,VWS V14.00,2013-02-15 14:22:00,
2013-02-15 08:27:00,31.3,24.0,30.36,NE,39,6.0,6.0,74,0.00,,---,0.00,VWS V14.00,2013-02-15 14:27:00,
2013-02-15 08:33:00,31.5,23.9,30.36,NE,34,13.0,16.0,73,0.00,,---,0.00,VWS V14.00,2013-02-15 14:33:00,
2013-02-15 08:39:00,31.5,23.5,30.36,NNE,32,5.0,14.0,72,0.00,,---,0.00,VWS V14.00,2013-02-15 14:39:00,
2013-02-15 08:45:00,31.6,23.6,30.37,North,1,3.0,10.0,72,0.00,,---,0.00,VWS V14.00,2013-02-15 14:45:00,
2013-02-15 08:50:00,31.7,23.7,30.37,NNE,15,9.0,10.0,72,0.00,,---,0.00,VWS V14.00,2013-02-15 14:50:00,
2013-02-15 08:56:00,31.9,23.2,30.37,North,1,12.0,12.0,70,0.00,,---,0.00,VWS V14.00,2013-02-15 14:56:00,
2013-02-15 09:01:00,31.9,23.2,30.37,NE,37,2.0,11.0,70,0.00,,---,0.00,VWS V14.00,2013-02-15 15:01:00,
2013-02-15 09:07:00,31.8,23.1,30.37,NNE,32,0.0,10.0,70,0.00,,---,0.00,VWS V14.00,2013-02-15 15:07:00,
2013-02-15 09:12:00,31.9,23.2,30.38,NNE,30,0.0,9.0,70,0.00,,---,0.00,VWS V14.00,2013-02-15 15:12:00,
2013-02-15 09:17:00,32.0,23.0,30.38,NE,53,9.0,11.0,69,0.00,,---,0.00,VWS V14.00,2013-02-15 15:17:00,
2013-02-15 09:23:00,31.8,22.8,30.38,NNE,30,10.0,10.0,69,0.00,,---,0.00,VWS V14.00,2013-02-15 15:23:00,
2013-02-15 09:28:00,32.0,22.6,30.38,NNE,26,5.0,14.0,68,0.00,,---,0.00,VWS V14.00,2013-02-15 15:28:00,
2013-02-15 09:34:00,31.8,22.5,30.38,West,266,1.0,11.0,68,0.00,,---,0.00,VWS V14.00,2013-02-15 15:34:00,
2013-02-15 09:39:00,32.1,22.8,30.38,WNW,297,3.0,12.0,68,0.00,,---,0.00,VWS V14.00,2013-02-15 15:39:00,
2013-02-15 09:44:00,32.3,22.9,30.38,North,0,0.0,6.0,68,0.00,,---,0.00,VWS V14.00,2013-02-15 15:44:00,
2013-02-15 09:49:00,32.6,22.5,30.38,NE,45,9.0,11.0,66,0.00,,---,0.00,VWS V14.00,2013-02-15 15:49:00,
2013-02-15 09:54:00,32.5,22.4,30.38,NE,44,4.0,12.0,66,0.00,,---,0.00,VWS V14.00,2013-02-15 15:54:00,
2013-02-15 09:59:00,33.0,22.5,30.38,NE,43,9.0,15.0,65,0.00,,---,0.00,VWS V14.00,2013-02-15 15:59:00,
2013-02-15 10:04:00,33.5,22.6,30.38,NNE,15,0.0,5.0,64,0.00,,---,0.00,VWS V14.00,2013-02-15 16:04:00,
2013-02-15 10:09:00,34.1,22.8,30.38,NE,37,0.0,8.0,63,0.00,,---,0.00,VWS V14.00,2013-02-15 16:09:00,
2013-02-15 10:15:00,33.6,22.4,30.39,NE,39,0.0,0.0,63,0.00,,---,0.00,VWS V14.00,2013-02-15 16:15:00,
2013-02-15 10:21:00,33.9,22.6,30.39,NW,326,0.0,7.0,63,0.00,,---,0.00,VWS V14.00,2013-02-15 16:21:00,
2013-02-15 10:27:00,34.5,22.5,30.39,North,1,8.0,10.0,61,0.00,,---,0.00,VWS V14.00,2013-02-15 16:27:00,
2013-02-15 10:33:00,34.9,21.6,30.39,NE,34,5.0,12.0,58,0.00,,---,0.00,VWS V14.00,2013-02-15 16:33:00,
2013-02-15 10:38:00,34.5,21.7,30.39,NNE,26,10.0,12.0,59,0.00,,---,0.00,VWS V14.00,2013-02-15 16:38:00,
2013-02-15 10:43:00,35.0,22.1,30.39,NE,44,0.0,5.0,59,0.00,,---,0.00,VWS V14.00,2013-02-15 16:43:00,
2013-02-15 10:48:00,35.6,22.3,30.39,ENE,57,10.0,14.0,58,0.00,,---,0.00,VWS V14.00,2013-02-15 16:48:00,
2013-02-15 10:53:00,36.0,23.1,30.39,NNE,30,0.0,10.0,59,0.00,,---,0.00,VWS V14.00,2013-02-15 16:53:00,
2013-02-15 10:59:00,36.8,23.0,30.39,ENE,60,6.0,15.0,57,0.00,,---,0.00,VWS V14.00,2013-02-15 16:59:00,
2013-02-15 11:04:00,36.4,21.8,30.39,North,1,4.0,7.0,55,0.00,,---,0.00,VWS V14.00,2013-02-15 17:04:00,
2013-02-15 11:10:00,36.2,20.3,30.39,NE,37,10.0,11.0,52,0.00,,---,0.00,VWS V14.00,2013-02-15 17:10:00,
2013-02-15 11:15:00,35.8,19.9,30.39,NNE,13,0.0,7.0,52,0.00,,---,0.00,VWS V14.00,2013-02-15 17:15:00,
2013-02-15 11:20:00,36.2,20.3,30.39,North,2,12.0,16.0,52,0.00,,---,0.00,VWS V14.00,2013-02-15 17:20:00,
2013-02-15 11:26:00,36.2,19.8,30.39,North,3,5.0,9.0,51,0.00,,---,0.00,VWS V14.00,2013-02-15 17:26:00,
2013-02-15 11:32:00,36.6,20.2,30.39,NNE,13,1.0,9.0,51,0.00,,---,0.00,VWS V14.00,2013-02-15 17:32:00,
2013-02-15 11:37:00,36.9,18.6,30.39,North,1,11.0,14.0,47,0.00,,---,0.00,VWS V14.00,2013-02-15 17:37:00,
2013-02-15 11:42:00,37.2,19.3,30.38,NNE,20,9.0,15.0,48,0.00,,---,0.00,VWS V14.00,2013-02-15 17:42:00,
2013-02-15 11:47:00,37.7,18.8,30.38,NNE,27,9.0,11.0,46,0.00,,---,0.00,VWS V14.00,2013-02-15 17:47:00,
2013-02-15 11:52:00,37.8,19.9,30.38,NNE,29,1.0,7.0,48,0.00,,---,0.00,VWS V14.00,2013-02-15 17:52:00,
2013-02-15 11:57:00,37.9,19.0,30.37,NE,54,1.0,9.0,46,0.00,,---,0.00,VWS V14.00,2013-02-15 17:57:00,
2013-02-15 12:02:00,37.7,16.1,30.37,NNE,23,10.0,17.0,41,0.00,,---,0.00,VWS V14.00,2013-02-15 18:02:00,
2013-02-15 12:08:00,37.7,15.6,30.37,North,1,9.0,13.0,40,0.00,,---,0.00,VWS V14.00,2013-02-15 18:08:00,
2013-02-15 12:13:00,38.8,16.6,30.37,NNE,29,10.0,14.0,40,0.00,,---,0.00,VWS V14.00,2013-02-15 18:13:00,
2013-02-15 12:18:00,38.7,17.0,30.37,NNE,18,9.0,12.0,41,0.00,,---,0.00,VWS V14.00,2013-02-15 18:18:00,
2013-02-15 12:23:00,39.6,18.4,30.37,NE,36,6.0,14.0,42,0.00,,---,0.00,VWS V14.00,2013-02-15 18:23:00,
2013-02-15 12:28:00,40.0,18.2,30.36,North,10,10.0,10.0,41,0.00,,---,0.00,VWS V14.00,2013-02-15 18:28:00,
2013-02-15 12:33:00,40.0,17.1,30.36,NNE,25,0.0,12.0,39,0.00,,---,0.00,VWS V14.00,2013-02-15 18:33:00,
2013-02-15 12:38:00,39.1,16.2,30.36,NNE,22,6.0,9.0,39,0.00,,---,0.00,VWS V14.00,2013-02-15 18:38:00,
2013-02-15 12:43:00,39.2,16.3,30.36,NE,34,6.0,10.0,39,0.00,,---,0.00,VWS V14.00,2013-02-15 18:43:00,
2013-02-15 12:48:00,40.0,15.2,30.36,NNE,13,3.0,9.0,36,0.00,,---,0.00,VWS V14.00,2013-02-15 18:48:00,
2013-02-15 12:54:00,39.7,14.9,30.36,NNE,32,1.0,12.0,36,0.00,,---,0.00,VWS V14.00,2013-02-15 18:54:00,
2013-02-15 12:59:00,40.1,15.3,30.35,North,1,7.0,9.0,36,0.00,,---,0.00,VWS V14.00,2013-02-15 18:59:00,
2013-02-15 13:04:00,39.7,14.9,30.35,NNE,33,3.0,10.0,36,0.00,,---,0.00,VWS V14.00,2013-02-15 19:04:00,
2013-02-15 13:10:00,39.9,15.1,30.34,NNE,23,0.0,4.0,36,0.00,,---,0.00,VWS V14.00,2013-02-15 19:10:00,
2013-02-15 13:16:00,39.9,14.5,30.34,NNE,30,5.0,5.0,35,0.00,,---,0.00,VWS V14.00,2013-02-15 19:16:00,
2013-02-15 13:21:00,40.1,14.7,30.34,NNE,18,11.0,14.0,35,0.00,,---,0.00,VWS V14.00,2013-02-15 19:21:00,
2013-02-15 13:26:00,39.8,14.4,30.34,North,1,0.0,7.0,35,0.00,,---,0.00,VWS V14.00,2013-02-15 19:26:00,
2013-02-15 13:32:00,40.7,15.2,30.34,NNE,31,3.0,9.0,35,0.00,,---,0.00,VWS V14.00,2013-02-15 19:32:00,
2013-02-15 13:37:00,40.8,14.6,30.34,NNE,18,2.0,11.0,34,0.00,,---,0.00,VWS V14.00,2013-02-15 19:37:00,
2013-02-15 13:43:00,40.5,13.7,30.34,NNE,17,9.0,9.0,33,0.00,,---,0.00,VWS V14.00,2013-02-15 19:43:00,
2013-02-15 13:49:00,40.6,14.4,30.34,North,3,10.0,13.0,34,0.00,,---,0.00,VWS V14.00,2013-02-15 19:49:00,
2013-02-15 13:54:00,40.5,14.4,30.34,NE,46,0.0,2.0,34,0.00,,---,0.00,VWS V14.00,2013-02-15 19:54:00,
2013-02-15 13:59:00,42.1,15.8,30.33,NE,35,0.0,5.0,34,0.00,,---,0.00,VWS V14.00,2013-02-15 19:59:00,
2013-02-15 14:05:00,42.5,14.7,30.33,NE,39,4.0,13.0,32,0.00,,---,0.00,VWS V14.00,2013-02-15 20:05:00,
2013-02-15 14:10:00,41.9,14.9,30.32,NNE,28,1.0,10.0,33,0.00,,---,0.00,VWS V14.00,2013-02-15 20:10:00,
2013-02-15 14:15:00,41.4,14.5,30.32,North,0,0.0,10.0,33,0.00,,---,0.00,VWS V14.00,2013-02-15 20:15:00,
2013-02-15 14:21:00,41.7,14.7,30.32,North,11,1.0,1.0,33,0.00,,---,0.00,VWS V14.00,2013-02-15 20:21:00,
2013-02-15 14:26:00,41.4,13.8,30.32,NNE,27,0.0,10.0,32,0.00,,---,0.00,VWS V14.00,2013-02-15 20:26:00,
2013-02-15 14:32:00,41.8,14.1,30.32,North,359,0.0,7.0,32,0.00,,---,0.00,VWS V14.00,2013-02-15 20:32:00,
2013-02-15 14:38:00,42.3,14.6,30.32,NNE,24,4.0,6.0,32,0.00,,---,0.00,VWS V14.00,2013-02-15 20:38:00,
2013-02-15 14:43:00,45.2,17.1,30.31,NE,34,0.0,0.0,32,0.00,,---,0.00,VWS V14.00,2013-02-15 20:43:00,
2013-02-15 14:48:00,44.7,15.2,30.31,NNE,13,0.0,0.0,30,0.00,,---,0.00,VWS V14.00,2013-02-15 20:48:00,
2013-02-15 14:54:00,42.7,13.4,30.31,NE,34,14.0,14.0,30,0.00,,---,0.00,VWS V14.00,2013-02-15 20:54:00,
2013-02-15 14:59:00,43.3,14.7,30.31,NE,49,0.0,0.0,31,0.00,,---,0.00,VWS V14.00,2013-02-15 20:59:00,
2013-02-15 15:04:00,43.8,13.6,30.31,North,4,11.0,13.0,29,0.00,,---,0.00,VWS V14.00,2013-02-15 21:04:00,
2013-02-15 15:09:00,42.9,12.9,30.31,North,4,3.0,12.0,29,0.00,,---,0.00,VWS V14.00,2013-02-15 21:09:00,
2013-02-15 15:14:00,43.2,13.1,30.32,North,356,0.0,1.0,29,0.00,,---,0.00,VWS V14.00,2013-02-15 21:14:00,
2013-02-15 15:19:00,43.4,12.5,30.32,NNE,29,0.0,9.0,28,0.00,,---,0.00,VWS V14.00,2013-02-15 21:19:00,
2013-02-15 15:24:00,43.9,14.5,30.32,NE,52,0.0,0.0,30,0.00,,---,0.00,VWS V14.00,2013-02-15 21:24:00,
2013-02-15 15:30:00,44.5,14.2,30.31,NE,41,0.0,6.0,29,0.00,,---,0.00,VWS V14.00,2013-02-15 21:30:00,
2013-02-15 15:35:00,44.0,13.8,30.31,NNE,23,0.0,0.0,29,0.00,,---,0.00,VWS V14.00,2013-02-15 21:35:00,
2013-02-15 15:41:00,44.7,12.8,30.31,NNE,14,0.0,9.0,27,0.00,,---,0.00,VWS V14.00,2013-02-15 21:41:00,
2013-02-15 15:46:00,44.4,13.4,30.31,NNE,19,6.0,16.0,28,0.00,,---,0.00,VWS V14.00,2013-02-15 21:46:00,
2013-02-15 15:51:00,44.2,12.4,30.31,North,9,7.0,7.0,27,0.00,,---,0.00,VWS V14.00,2013-02-15 21:51:00,
2013-02-15 15:56:00,44.1,12.3,30.31,NNE,17,3.0,7.0,27,0.00,,---,0.00,VWS V14.00,2013-02-15 21:56:00,
2013-02-15 16:01:00,44.2,12.4,30.31,NNE,14,0.0,0.0,27,0.00,,---,0.00,VWS V14.00,2013-02-15 22:01:00,
2013-02-15 16:06:00,44.9,12.1,30.31,NE,34,7.0,11.0,26,0.00,,---,0.00,VWS V14.00,2013-02-15 22:06:00,
2013-02-15 16:12:00,43.4,12.5,30.31,NE,34,6.0,7.0,28,0.00,,---,0.00,VWS V14.00,2013-02-15 22:12:00,
2013-02-15 16:17:00,43.4,12.5,30.31,NNE,23,8.0,9.0,28,0.00,,---,0.00,VWS V14.00,2013-02-15 22:17:00,
2013-02-15 16:22:00,43.1,11.4,30.31,NNE,20,2.0,6.0,27,0.00,,---,0.00,VWS V14.00,2013-02-15 22:22:00,
2013-02-15 16:28:00,43.2,12.3,30.31,NNE,29,7.0,9.0,28,0.00,,---,0.00,VWS V14.00,2013-02-15 22:28:00,
2013-02-15 16:33:00,43.6,11.8,30.31,NNE,31,0.0,5.0,27,0.00,,---,0.00,VWS V14.00,2013-02-15 22:33:00,
2013-02-15 16:38:00,43.4,11.7,30.31,NE,34,0.0,6.0,27,0.00,,---,0.00,VWS V14.00,2013-02-15 22:38:00,
2013-02-15 16:44:00,44.0,12.2,30.31,North,8,0.0,0.0,27,0.00,,---,0.00,VWS V14.00,2013-02-15 22:44:00,
2013-02-15 16:50:00,43.8,12.8,30.31,NNE,21,0.0,0.0,28,0.00,,---,0.00,VWS V14.00,2013-02-15 22:50:00,
2013-02-15 16:55:00,44.0,12.2,30.30,North,10,7.0,12.0,27,0.00,,---,0.00,VWS V14.00,2013-02-15 22:55:00,
2013-02-15 17:01:00,43.4,11.7,30.30,NNE,23,0.0,5.0,27,0.00,,---,0.00,VWS V14.00,2013-02-15 23:01:00,
2013-02-15 17:06:00,43.3,11.6,30.30,North,11,0.0,0.0,27,0.00,,---,0.00,VWS V14.00,2013-02-15 23:06:00,
2013-02-15 17:11:00,43.6,12.7,30.30,NNE,28,0.0,3.0,28,0.00,,---,0.00,VWS V14.00,2013-02-15 23:11:00,
2013-02-15 17:16:00,43.4,12.5,30.30,NE,37,4.0,4.0,28,0.00,,---,0.00,VWS V14.00,2013-02-15 23:16:00,
2013-02-15 17:22:00,42.9,12.1,30.30,NNE,20,3.0,7.0,28,0.00,,---,0.00,VWS V14.00,2013-02-15 23:22:00,
2013-02-15 17:28:00,42.7,11.9,30.30,NNE,15,1.0,1.0,28,0.00,,---,0.00,VWS V14.00,2013-02-15 23:28:00,
2013-02-15 17:33:00,42.5,11.7,30.30,NNE,15,1.0,4.0,28,0.00,,---,0.00,VWS V14.00,2013-02-15 23:33:00,
2013-02-15 17:38:00,42.5,12.5,30.30,North,358,0.0,0.0,29,0.00,,---,0.00,VWS V14.00,2013-02-15 23:38:00,
2013-02-15 17:43:00,42.5,12.5,30.30,North,0,0.0,1.0,29,0.00,,---,0.00,VWS V14.00,2013-02-15 23:43:00,
2013-02-15 17:48:00,42.4,12.4,30.30,North,8,0.0,0.0,29,0.00,,---,0.00,VWS V14.00,2013-02-15 23:48:00,
2013-02-15 17:53:00,42.2,12.2,30.30,NW,310,0.0,0.0,29,0.00,,---,0.00,VWS V14.00,2013-02-15 23:53:00,
2013-02-15 17:58:00,42.0,12.8,30.31,North,6,0.0,5.0,30,0.00,,---,0.00,VWS V14.00,2013-02-15 23:58:00,
2013-02-15 18:03:00,41.9,12.7,30.31,North,359,0.0,2.0,30,0.00,,---,0.00,VWS V14.00,2013-02-16 00:03:00,
2013-02-15 18:09:00,41.7,12.6,30.31,NNE,28,0.0,0.0,30,0.00,,---,0.00,VWS V14.00,2013-02-16 00:09:00,
2013-02-15 18:15:00,41.5,13.1,30.31,NNE,18,0.0,0.0,31,0.00,,---,0.00,VWS V14.00,2013-02-16 00:15:00,
2013-02-15 18:20:00,41.3,13.0,30.31,North,8,0.0,0.0,31,0.00,,---,0.00,VWS V14.00,2013-02-16 00:20:00,
2013-02-15 18:25:00,41.2,13.6,30.31,North,8,0.0,0.0,32,0.00,,---,0.00,VWS V14.00,2013-02-16 00:25:00,
2013-02-15 18:30:00,41.0,13.4,30.31,NNW,336,0.0,0.0,32,0.00,,---,0.00,VWS V14.00,2013-02-16 00:30:00,
2013-02-15 18:35:00,40.9,13.3,30.31,NNE,26,0.0,2.0,32,0.00,,---,0.00,VWS V14.00,2013-02-16 00:35:00,
2013-02-15 18:41:00,40.8,13.9,30.31,NNE,21,0.0,0.0,33,0.00,,---,0.00,VWS V14.00,2013-02-16 00:41:00,
2013-02-15 18:46:00,40.7,13.9,30.31,NNE,25,0.0,0.0,33,0.00,,---,0.00,VWS V14.00,2013-02-16 00:46:00,
2013-02-15 18:51:00,40.5,13.7,30.31,NNE,26,0.0,0.0,33,0.00,,---,0.00,VWS V14.00,2013-02-16 00:51:00,
2013-02-15 18:57:00,40.4,14.3,30.31,NNE,18,0.0,1.0,34,0.00,,---,0.00,VWS V14.00,2013-02-16 00:57:00,
2013-02-15 19:03:00,40.2,14.1,30.31,NNE,18,0.0,0.0,34,0.00,,---,0.00,VWS V14.00,2013-02-16 01:03:00,
2013-02-15 19:09:00,40.0,14.6,30.31,NNE,23,0.0,0.0,35,0.00,,---,0.00,VWS V14.00,2013-02-16 01:09:00,
2013-02-15 19:15:00,39.7,14.3,30.31,NNE,23,0.0,0.0,35,0.00,,---,0.00,VWS V14.00,2013-02-16 01:15:00,
2013-02-15 19:21:00,39.5,14.1,30.31,NNE,23,0.0,0.0,35,0.00,,---,0.00,VWS V14.00,2013-02-16 01:21:00,
2013-02-15 19:27:00,39.4,14.7,30.32,NNE,23,0.0,0.0,36,0.00,,---,0.00,VWS V14.00,2013-02-16 01:27:00,
2013-02-15 19:33:00,39.2,14.5,30.32,NNE,23,0.0,0.0,36,0.00,,---,0.00,VWS V14.00,2013-02-16 01:33:00,
2013-02-15 19:38:00,39.0,14.3,30.32,NNE,23,0.0,0.0,36,0.00,,---,0.00,VWS V14.00,2013-02-16 01:38:00,
2013-02-15 19:43:00,38.8,14.8,30.32,NNE,23,0.0,0.0,37,0.00,,---,0.00,VWS V14.00,2013-02-16 01:43:00,
2013-02-15 19:48:00,38.7,14.7,30.32,NNE,23,0.0,0.0,37,0.00,,---,0.00,VWS V14.00,2013-02-16 01:48:00,
2013-02-15 19:53:00,38.5,15.1,30.32,NNE,23,0.0,0.0,38,0.00,,---,0.00,VWS V14.00,2013-02-16 01:53:00,
2013-02-15 19:58:00,38.4,15.6,30.32,NNE,23,0.0,0.0,39,0.00,,---,0.00,VWS V14.00,2013-02-16 01:58:00,
2013-02-15 20:03:00,38.3,15.5,30.32,NNE,23,0.0,0.0,39,0.00,,---,0.00,VWS V14.00,2013-02-16 02:03:00,
2013-02-15 20:09:00,38.2,15.4,30.32,NNE,23,0.0,0.0,39,0.00,,---,0.00,VWS V14.00,2013-02-16 02:09:00,
2013-02-15 20:14:00,38.1,16.5,30.32,NNE,23,0.0,0.0,41,0.00,,---,0.00,VWS V14.00,2013-02-16 02:14:00,
2013-02-15 20:20:00,38.0,15.8,30.32,NNE,23,0.0,0.0,40,0.00,,---,0.00,VWS V14.00,2013-02-16 02:20:00,
2013-02-15 20:25:00,37.9,16.3,30.31,NNE,23,0.0,0.0,41,0.00,,---,0.00,VWS V14.00,2013-02-16 02:25:00,
2013-02-15 20:30:00,37.7,16.1,30.31,NNE,23,0.0,0.0,41,0.00,,---,0.00,VWS V14.00,2013-02-16 02:30:00,
2013-02-15 20:35:00,37.4,15.9,30.31,NNE,23,0.0,0.0,41,0.00,,---,0.00,VWS V14.00,2013-02-16 02:35:00,
2013-02-15 20:40:00,37.2,16.2,30.32,NNE,23,0.0,0.0,42,0.00,,---,0.00,VWS V14.00,2013-02-16 02:40:00,
2013-02-15 20:46:00,37.0,16.1,30.32,NNE,23,0.0,0.0,42,0.00,,---,0.00,VWS V14.00,2013-02-16 02:46:00,
2013-02-15 20:51:00,36.7,16.3,30.32,NNE,23,0.0,0.0,43,0.00,,---,0.00,VWS V14.00,2013-02-16 02:51:00,
2013-02-15 20:57:00,36.4,16.6,30.31,NNE,23,0.0,0.0,44,0.00,,---,0.00,VWS V14.00,2013-02-16 02:57:00,
2013-02-15 21:02:00,36.2,16.9,30.31,NNE,23,0.0,0.0,45,0.00,,---,0.00,VWS V14.00,2013-02-16 03:02:00,
2013-02-15 21:08:00,35.9,16.6,30.31,NNE,23,0.0,0.0,45,0.00,,---,0.00,VWS V14.00,2013-02-16 03:08:00,
2013-02-15 21:14:00,35.7,18.0,30.31,NNE,23,0.0,0.0,48,0.00,,---,0.00,VWS V14.00,2013-02-16 03:14:00,
2013-02-15 21:19:00,35.7,20.3,30.31,NNE,23,0.0,0.0,53,0.00,,---,0.00,VWS V14.00,2013-02-16 03:19:00,
2013-02-15 21:24:00,36.2,21.6,30.31,NNE,23,0.0,0.0,55,0.00,,---,0.00,VWS V14.00,2013-02-16 03:24:00,
2013-02-15 21:30:00,35.5,17.8,30.31,NNE,23,0.0,0.0,48,0.00,,---,0.00,VWS V14.00,2013-02-16 03:30:00,
2013-02-15 21:36:00,34.7,18.0,30.31,NNE,23,0.0,0.0,50,0.00,,---,0.00,VWS V14.00,2013-02-16 03:36:00,
2013-02-15 21:42:00,34.3,18.1,30.31,NNE,23,0.0,0.0,51,0.00,,---,0.00,VWS V14.00,2013-02-16 03:42:00,
2013-02-15 21:48:00,34.0,18.7,30.31,NNE,23,0.0,0.0,53,0.00,,---,0.00,VWS V14.00,2013-02-16 03:48:00,
2013-02-15 21:53:00,33.8,18.5,30.31,NNE,23,0.0,0.0,53,0.00,,---,0.00,VWS V14.00,2013-02-16 03:53:00,
2013-02-15 21:58:00,33.5,18.2,30.31,NNE,23,0.0,0.0,53,0.00,,---,0.00,VWS V14.00,2013-02-16 03:58:00,
2013-02-15 22:03:00,33.4,18.6,30.31,NNE,23,0.0,0.0,54,0.00,,---,0.00,VWS V14.00,2013-02-16 04:03:00,
2013-02-15 22:08:00,33.2,18.4,30.31,NNE,23,0.0,0.0,54,0.00,,---,0.00,VWS V14.00,2013-02-16 04:08:00,
2013-02-15 22:13:00,33.0,18.6,30.31,NNE,23,0.0,0.0,55,0.00,,---,0.00,VWS V14.00,2013-02-16 04:13:00,
2013-02-15 22:18:00,32.8,18.8,30.31,NNE,23,0.0,0.0,56,0.00,,---,0.00,VWS V14.00,2013-02-16 04:18:00,
2013-02-15 22:24:00,32.6,18.2,30.31,NNE,23,0.0,0.0,55,0.00,,---,0.00,VWS V14.00,2013-02-16 04:24:00,
2013-02-15 22:29:00,32.7,18.8,30.31,NNE,23,0.0,0.0,56,0.00,,---,0.00,VWS V14.00,2013-02-16 04:29:00,
2013-02-15 22:34:00,32.6,19.1,30.31,NNE,23,0.0,0.0,57,0.00,,---,0.00,VWS V14.00,2013-02-16 04:34:00,
2013-02-15 22:40:00,32.7,19.2,30.31,NNE,23,0.0,0.0,57,0.00,,---,0.00,VWS V14.00,2013-02-16 04:40:00,
2013-02-15 22:45:00,32.6,19.5,30.31,NNE,23,0.0,0.0,58,0.00,,---,0.00,VWS V14.00,2013-02-16 04:45:00,
2013-02-15 22:50:00,32.5,19.4,30.31,NNE,23,0.0,0.0,58,0.00,,---,0.00,VWS V14.00,2013-02-16 04:50:00,
2013-02-15 22:51:00,32.6,19.5,30.31,NNE,23,0.0,0.0,58,0.00,,---,0.00,VWS V14.00,2013-02-16 04:51:00,
2013-02-15 22:52:00,32.6,19.5,30.31,NNE,23,0.0,0.0,58,0.00,,---,0.00,VWS V14.00,2013-02-16 04:52:00,
2013-02-15 22:53:00,32.7,19.2,30.31,NNE,23,0.0,0.0,57,0.00,,---,0.00,VWS V14.00,2013-02-16 04:53:00,
2013-02-15 22:54:00,32.7,19.6,30.31,NNE,22,0.0,0.0,58,0.00,,---,0.00,VWS V14.00,2013-02-16 04:54:00,
2013-02-15 22:55:00,32.6,19.5,30.31,NNE,23,0.0,0.0,58,0.00,,---,0.00,VWS V14.00,2013-02-16 04:55:00,
2013-02-15 22:56:00,32.8,19.3,30.31,NNE,22,0.0,0.0,57,0.00,,---,0.00,VWS V14.00,2013-02-16 04:56:00,
2013-02-15 22:57:00,32.9,19.4,30.31,NW,321,0.0,1.0,57,0.00,,---,0.00,VWS V14.00,2013-02-16 04:57:00,
2013-02-15 22:58:00,33.0,19.4,30.31,NW,321,0.0,0.0,57,0.00,,---,0.00,VWS V14.00,2013-02-16 04:58:00,
2013-02-15 22:59:00,33.0,19.4,30.31,NW,321,0.0,0.0,57,0.00,,---,0.00,VWS V14.00,2013-02-16 04:59:00,
2013-02-15 23:00:00,33.1,19.5,30.31,NW,321,0.0,0.0,57,0.00,,---,0.00,VWS V14.00,2013-02-16 05:00:00,
2013-02-15 23:01:00,33.1,19.5,30.31,NW,321,0.0,0.0,57,0.00,,---,0.00,VWS V14.00,2013-02-16 05:01:00,
2013-02-15 23:02:00,33.1,19.5,30.31,NW,321,0.0,0.0,57,0.00,,---,0.00,VWS V14.00,2013-02-16 05:02:00,
2013-02-15 23:03:00,33.0,19.4,30.31,NW,321,0.0,0.0,57,0.00,,---,0.00,VWS V14.00,2013-02-16 05:03:00,
2013-02-15 23:04:00,33.0,19.4,30.31,NW,321,0.0,0.0,57,0.00,,---,0.00,VWS V14.00,2013-02-16 05:04:00,
2013-02-15 23:05:00,33.0,19.4,30.31,NW,321,0.0,0.0,57,0.00,,---,0.00,VWS V14.00,2013-02-16 05:05:00,
2013-02-15 23:06:00,33.0,19.4,30.31,NW,321,0.0,0.0,57,0.00,,---,0.00,VWS V14.00,2013-02-16 05:06:00,
2013-02-15 23:07:00,33.0,19.4,30.31,NW,321,0.0,0.0,57,0.00,,---,0.00,VWS V14.00,2013-02-16 05:07:00,
2013-02-15 23:08:00,33.0,19.4,30.31,NW,321,0.0,0.0,57,0.00,,---,0.00,VWS V14.00,2013-02-16 05:08:00,
2013-02-15 23:09:00,33.0,19.4,30.31,NW,321,0.0,0.0,57,0.00,,---,0.00,VWS V14.00,2013-02-16 05:09:00,
2013-02-15 23:10:00,33.0,19.4,30.31,NW,321,0.0,0.0,57,0.00,,---,0.00,VWS V14.00,2013-02-16 05:10:00,
2013-02-15 23:11:00,33.0,19.4,30.31,NW,321,0.0,0.0,57,0.00,,---,0.00,VWS V14.00,2013-02-16 05:11:00,
2013-02-15 23:12:00,33.0,19.9,30.31,NW,321,0.0,0.0,58,0.00,,---,0.00,VWS V14.00,2013-02-16 05:12:00,
2013-02-15 23:13:00,32.9,19.8,30.31,WNW,298,1.0,3.0,58,0.00,,---,0.00,VWS V14.00,2013-02-16 05:13:00,
2013-02-15 23:14:00,32.9,19.8,30.31,WNW,290,0.0,2.0,58,0.00,,---,0.00,VWS V14.00,2013-02-16 05:14:00,
2013-02-15 23:15:00,32.9,19.8,30.30,WNW,289,0.0,0.0,58,0.00,,---,0.00,VWS V14.00,2013-02-16 05:15:00,
2013-02-15 23:16:00,32.8,19.7,30.30,WNW,289,0.0,0.0,58,0.00,,---,0.00,VWS V14.00,2013-02-16 05:16:00,
2013-02-15 23:17:00,32.8,20.1,30.30,WNW,289,0.0,0.0,59,0.00,,---,0.00,VWS V14.00,2013-02-16 05:17:00,
2013-02-15 23:18:00,32.8,20.1,30.30,WNW,289,0.0,0.0,59,0.00,,---,0.00,VWS V14.00,2013-02-16 05:18:00,
2013-02-15 23:19:00,32.8,19.7,30.30,WNW,289,0.0,0.0,58,0.00,,---,0.00,VWS V14.00,2013-02-16 05:19:00,
2013-02-15 23:20:00,32.8,19.7,30.30,WNW,289,0.0,0.0,58,0.00,,---,0.00,VWS V14.00,2013-02-16 05:20:00,
2013-02-15 23:21:00,32.8,19.7,30.30,WNW,289,0.0,0.0,58,0.00,,---,0.00,VWS V14.00,2013-02-16 05:21:00,
2013-02-15 23:22:00,32.9,19.8,30.30,WNW,289,0.0,0.0,58,0.00,,---,0.00,VWS V14.00,2013-02-16 05:22:00,
2013-02-15 23:23:00,32.9,19.8,30.30,WNW,289,0.0,0.0,58,0.00,,---,0.00,VWS V14.00,2013-02-16 05:23:00,
2013-02-15 23:24:00,32.8,19.3,30.30,WNW,289,0.0,0.0,57,0.00,,---,0.00,VWS V14.00,2013-02-16 05:24:00,
2013-02-15 23:25:00,32.9,19.8,30.30,WNW,289,0.0,0.0,58,0.00,,---,0.00,VWS V14.00,2013-02-16 05:25:00,
2013-02-15 23:26:00,32.8,19.3,30.30,WNW,289,0.0,0.0,57,0.00,,---,0.00,VWS V14.00,2013-02-16 05:26:00,
2013-02-15 23:27:00,32.8,19.3,30.30,WNW,289,0.0,0.0,57,0.00,,---,0.00,VWS V14.00,2013-02-16 05:27:00,
2013-02-15 23:28:00,32.8,19.3,30.30,WNW,289,0.0,0.0,57,0.00,,---,0.00,VWS V14.00,2013-02-16 05:28:00,
2013-02-15 23:29:00,32.8,18.8,30.30,WNW,289,0.0,0.0,56,0.00,,---,0.00,VWS V14.00,2013-02-16 05:29:00,
2013-02-15 23:30:00,32.9,18.9,30.30,WNW,289,0.0,0.0,56,0.00,,---,0.00,VWS V14.00,2013-02-16 05:30:00,
2013-02-15 23:31:00,32.9,19.4,30.30,WNW,289,0.0,0.0,57,0.00,,---,0.00,VWS V14.00,2013-02-16 05:31:00,
2013-02-15 23:32:00,32.9,19.4,30.30,WNW,289,0.0,0.0,57,0.00,,---,0.00,VWS V14.00,2013-02-16 05:32:00,
2013-02-15 23:33:00,32.9,19.4,30.30,WNW,289,0.0,0.0,57,0.00,,---,0.00,VWS V14.00,2013-02-16 05:33:00,
2013-02-15 23:34:00,33.0,19.4,30.30,WNW,289,0.0,0.0,57,0.00,,---,0.00,VWS V14.00,2013-02-16 05:34:00,
2013-02-15 23:35:00,33.0,19.4,30.30,WNW,289,0.0,0.0,57,0.00,,---,0.00,VWS V14.00,2013-02-16 05:35:00,
2013-02-15 23:36:00,33.0,19.4,30.30,WNW,289,0.0,0.0,57,0.00,,---,0.00,VWS V14.00,2013-02-16 05:36:00,
2013-02-15 23:37:00,33.0,19.4,30.30,WNW,289,0.0,0.0,57,0.00,,---,0.00,VWS V14.00,2013-02-16 05:37:00,
2013-02-15 23:38:00,33.0,19.4,30.30,WNW,289,0.0,0.0,57,0.00,,---,0.00,VWS V14.00,2013-02-16 05:38:00,
2013-02-15 23:39:00,33.0,19.4,30.30,WNW,289,0.0,0.0,57,0.00,,---,0.00,VWS V14.00,2013-02-16 05:39:00,
2013-02-15 23:40:00,33.0,19.4,30.30,WNW,289,0.0,0.0,57,0.00,,---,0.00,VWS V14.00,2013-02-16 05:40:00,
2013-02-15 23:41:00,33.0,19.4,30.30,WNW,289,2.0,3.0,57,0.00,,---,0.00,VWS V14.00,2013-02-16 05:41:00,
2013-02-15 23:42:00,33.1,19.5,30.30,WNW,289,0.0,2.0,57,0.00,,---,0.00,VWS V14.00,2013-02-16 05:42:00,
2013-02-15 23:43:00,33.1,19.5,30.30,WNW,289,0.0,0.0,57,0.00,,---,0.00,VWS V14.00,2013-02-16 05:43:00,
2013-02-15 23:44:00,33.2,19.2,30.30,WNW,291,3.0,3.0,56,0.00,,---,0.00,VWS V14.00,2013-02-16 05:44:00,
2013-02-15 23:45:00,33.2,19.2,30.30,WNW,290,0.0,3.0,56,0.00,,---,0.00,VWS V14.00,2013-02-16 05:45:00,
2013-02-15 23:46:00,33.3,19.3,30.30,WNW,290,0.0,0.0,56,0.00,,---,0.00,VWS V14.00,2013-02-16 05:46:00,
2013-02-15 23:47:00,33.3,19.3,30.30,WNW,290,0.0,0.0,56,0.00,,---,0.00,VWS V14.00,2013-02-16 05:47:00,
2013-02-15 23:48:00,33.3,19.3,30.30,WNW,290,1.0,2.0,56,0.00,,---,0.00,VWS V14.00,2013-02-16 05:48:00,
2013-02-15 23:49:00,33.4,19.4,30.30,WNW,290,0.0,1.0,56,0.00,,---,0.00,VWS V14.00,2013-02-16 05:49:00,
2013-02-15 23:50:00,33.3,19.3,30.30,WNW,290,0.0,0.0,56,0.00,,---,0.00,VWS V14.00,2013-02-16 05:50:00,
2013-02-15 23:51:00,33.4,19.4,30.30,WNW,290,0.0,0.0,56,0.00,,---,0.00,VWS V14.00,2013-02-16 05:51:00,
2013-02-15 23:52:00,33.4,19.4,30.30,WNW,290,0.0,0.0,56,0.00,,---,0.00,VWS V14.00,2013-02-16 05:52:00,
2013-02-15 23:53:00,33.4,19.4,30.30,WNW,290,0.0,0.0,56,0.00,,---,0.00,VWS V14.00,2013-02-16 05:53:00,
2013-02-15 23:54:00,33.4,19.4,30.30,WNW,290,0.0,0.0,56,0.00,,---,0.00,VWS V14.00,2013-02-16 05:54:00,
2013-02-15 23:55:00,33.4,19.8,30.30,WNW,288,3.0,4.0,57,0.00,,---,0.00,VWS V14.00,2013-02-16 05:55:00,
2013-02-15 23:56:00,33.4,19.4,30.30,WNW,288,0.0,3.0,56,0.00,,---,0.00,VWS V14.00,2013-02-16 05:56:00,
2013-02-15 23:57:00,33.3,19.7,30.30,WNW,288,0.0,2.0,57,0.00,,---,0.00,VWS V14.00,2013-02-16 05:57:00,
2013-02-15 23:58:00,33.4,21.0,30.30,WNW,288,0.0,0.0,60,0.00,,---,0.00,VWS V14.00,2013-02-16 05:58:00,
2013-02-15 23:59:00,33.4,20.6,30.30,WNW,288,0.0,0.0,59,0.00,,---,0.00,VWS V14.00,2013-02-16 05:59:00,